Content
SEND FEEDBACK

Daily
Averages
Monthly
Summary
United States of America

ST. LOUIS - SAINT LOUIS UNIVERSITY, MISSOURI


Home > North America > United States > Missouri
Elevation: 580 feet     Latitude: 38 38N     Longitude: 090 14W

WEATHER
 
SELECT A DAY
Number of Records: 189,088;   Date Range: 1/1/95 - 10/21/14
 
SHARE

PRINT THIS DATA

[ ← Previous Day ]
WEATHER ALMANAC - MAY 16, 2013
[ Next Day → ]
[ °C ]   °F
Weather ElementAverageHighLow
Temperature72.1 °F81 °F (3:53 pm)64 °F (11:53 pm)
Dewpoint61.7 °F66 °F (10:53 am)55 °F (4:53 pm)
Humidity71 %90 % (5:53 am)42 % (4:53 pm)
Barometer29.91 in29.95 in (10:33 am)29.86 in (1:53 am)
Wind Speed5.1 mph11.5 mph (3:53 pm)
Wind Gust18.4 mph (3:53 pm)
Weather ElementAverage
Visibility9.9 mi
Wind DirectionSE (134.2 °)

Weather ElementTotal
Precipitation0.01 in
Cooling Degree Days7.5 (Base 65)
Growing Degree Days22.5 (Base 50)
Averaged from 26 records on May 16, 2013
WEATHER CONDITIONS BREAKOUT
WIND DIRECTION BREAKOUT
WEATHER BY HOUR - MAY 16, 2013
[ °C ]   °F
Local TimeTemperatureDewpointHumidityBarometerVisibilityWind DirectionWind SpeedGust SpeedPrecipitationEventsConditions
1:53 AM73.0 °F63.0 °F71 %29.86 in10.0 miSW (220°)4.6 mphClear
2:53 AM71.1 °F63.0 °F75 %29.87 in10.0 miWSW (250°)4.6 mphClear
3:53 AM70.0 °F63.0 °F78 %29.88 in10.0 miCalmMostly Cloudy
4:53 AM70.0 °F64.0 °F81 %29.89 in10.0 miSSW (200°)5.8 mphMostly Cloudy
5:53 AM68.0 °F64.9 °F90 %29.91 in10.0 miSSW (200°)3.5 mph0.00 inMostly Cloudy
6:31 AM69.8 °F62.6 °F78 %29.93 in10.0 miSW (230°)3.5 mphOvercast
6:48 AM69.8 °F62.6 °F78 %29.93 in10.0 miSW (220°)4.6 mphScattered Clouds
6:53 AM70.0 °F62.1 °F76 %29.93 in10.0 miSW (220°)3.5 mphPartly Cloudy
7:53 AM70.0 °F64.0 °F81 %29.94 in10.0 miCalmPartly Cloudy
8:53 AM73.9 °F64.0 °F71 %29.93 in10.0 miVariable4.6 mphClear
9:53 AM73.0 °F64.0 °F73 %29.94 in10.0 miSouth (170°)8.1 mphOvercast
10:14 AM73.4 °F64.4 °F73 %29.94 in10.0 miCalm0.00 inRain-ThunderstormLight Rain
10:33 AM73.4 °F64.4 °F73 %29.95 in10.0 miSSE (150°)6.9 mph0.00 inOvercast
10:53 AM70.0 °F66.0 °F87 %29.94 in8.0 miSE (140°)6.9 mph0.00 inRainLight Rain
11:53 AM69.1 °F64.0 °F84 %29.95 in10.0 miSSE (150°)9.2 mph0.01 inRainLight Rain
12:53 PM72.0 °F64.0 °F76 %29.92 in10.0 miSE (140°)9.2 mph0.00 inScattered Clouds
1:53 PM79.0 °F64.9 °F62 %29.90 in10.0 miSE (140°)8.1 mphMostly Cloudy
2:53 PM80.1 °F63.0 °F56 %29.89 in10.0 miSouth (170°)9.2 mphClear
3:53 PM81.0 °F57.0 °F44 %29.88 in10.0 miSouth (170°)11.5 mph18.4 mphClear
4:53 PM80.1 °F55.0 °F42 %29.88 in10.0 miSouth (170°)10.4 mph18.4 mphClear
5:53 PM75.9 °F55.9 °F50 %29.89 in10.0 miSouth (190°)8.1 mph18.4 mphClear
6:53 PM73.0 °F55.9 °F55 %29.88 in10.0 miSSW (200°)4.6 mphClear
7:53 PM72.0 °F57.0 °F59 %29.89 in10.0 miSSE (160°)4.6 mphScattered Clouds
9:53 PM66.9 °F57.9 °F73 %29.91 in10.0 miCalmClear
10:53 PM66.9 °F59.0 °F76 %29.92 in10.0 miCalmClear
11:53 PM64.0 °F59.0 °F84 %29.94 in10.0 miCalmScattered Clouds
Hourly data recorded from KCPS, located miles away from St. Louis - Saint Louis University, Missouri







STORIES FROM OUR PARTNERS